Total_Precipitation_Accumulation
0.01 0.00 0.00 0.00 0.01 0.00 0.01 0.01 0.02 0.02 0.03 0.05 0.06 0.06 0.06 0.06 0.06 0.04 0.04 0.04 0.08 0.15 0.20 0.21 0.20 0.25 0.25 0.25 0.21 0.15 0.11 0.07 0.05 0.04 0.03 0.02 0.03 0.04 0.05 0.05 0.04 0.05 0.00
0.01 0.00 0.00 0.01 0.01 0.01 0.01 0.01 0.02 0.02 0.02 0.03 0.03 0.03 0.03 0.03 0.04 0.07 0.06 0.07 0.12 0.16 0.17 0.19 0.20 0.20 0.19 0.17 0.13 0.08 0.05 0.03 0.02 0.02 0.03 0.08 0.18 0.17 0.13 0.12 0.11 0.11 0.00
0.00 0.00 0.00 0.01 0.01 0.01 0.01 0.01 0.01 0.02 0.02 0.02 0.03 0.02 0.02 0.02 0.04 0.07 0.08 0.10 0.15 0.16 0.14 0.14 0.15 0.14 0.12 0.07 0.04 0.02 0.01 0.00 0.00 0.02 0.07 0.25 0.42 0.29 0.17 0.16 0.16 0.12 0.03
0.00 0.00 0.00 0.00 0.01 0.00 0.00 0.00 0.01 0.01 0.02 0.03 0.05 0.04 0.03 0.03 0.04 0.06 0.08 0.10 0.13 0.12 0.11 0.10 0.10 0.08 0.05 0.02 0.02 0.01 0.00 0.00 0.00 0.03 0.09 0.27 0.55 0.47 0.26 0.19 0.19 0.18 0.14
0.01 0.01 0.00 0.00 0.01 0.01 0.00 0.00 0.01 0.02 0.02 0.04 0.06 0.07 0.05 0.03 0.04 0.06 0.11 0.15 0.17 0.16 0.17 0.17 0.14 0.07 0.03 0.02 0.02 0.01 0.01 0.00 0.01 0.06 0.17 0.39 0.65 0.59 0.34 0.22 0.23 0.26 0.26
0.01 0.00 0.00 0.01 0.01 0.01 0.01 0.01 0.02 0.04 0.04 0.04 0.05 0.07 0.08 0.05 0.04 0.09 0.17 0.21 0.21 0.21 0.25 0.31 0.25 0.16 0.08 0.04 0.02 0.02 0.01 0.01 0.03 0.12 0.24 0.42 0.56 0.46 0.26 0.18 0.18 0.25 0.31
0.01 0.00 0.00 0.01 0.01 0.01 0.01 0.02 0.04 0.05 0.06 0.08 0.07 0.08 0.10 0.06 0.04 0.10 0.19 0.25 0.26 0.25 0.25 0.23 0.17 0.13 0.10 0.06 0.04 0.03 0.02 0.01 0.05 0.14 0.29 0.41 0.41 0.24 0.15 0.12 0.11 0.14 0.18
0.00 0.00 0.00 0.00 0.01 0.02 0.02 0.04 0.05 0.04 0.05 0.07 0.07 0.09 0.10 0.06 0.04 0.09 0.17 0.26 0.31 0.27 0.20 0.16 0.12 0.09 0.08 0.06 0.05 0.03 0.03 0.04 0.05 0.11 0.19 0.24 0.26 0.13 0.09 0.09 0.08 0.08 0.08
0.04 0.04 0.03 0.01 0.01 0.02 0.02 0.03 0.04 0.03 0.03 0.04 0.04 0.06 0.08 0.07 0.06 0.09 0.15 0.21 0.20 0.14 0.12 0.10 0.09 0.07 0.04 0.03 0.02 0.02 0.04 0.05 0.05 0.05 0.06 0.08 0.11 0.06 0.03 0.03 0.03 0.03 0.03
0.30 0.53 0.33 0.07 0.02 0.01 0.01 0.01 0.01 0.01 0.01 0.01 0.01 0.03 0.04 0.06 0.08 0.10 0.13 0.11 0.08 0.04 0.02 0.03 0.03 0.02 0.02 0.01 0.01 0.01 0.02 0.02 0.02 0.01 0.02 0.01 0.02 0.01 0.00 0.00 0.00 0.00 0.00
0.52 0.73 0.33 0.11 0.03 0.01 0.00 0.00 0.01 0.00 0.01 0.01 0.02 0.03 0.05 0.12 0.15 0.15 0.09 0.07 0.04 0.02 0.01 0.00 0.01 0.01 0.01 0.00 0.00 0.00 0.00 0.00 0.00 0.00 0.00 0.00 0.00 0.00 0.00 0.00 0.00 0.00 0.00
0.36 0.28 0.16 0.08 0.02 0.01 0.01 0.01 0.01 0.01 0.01 0.02 0.04 0.04 0.11 0.19 0.20 0.13 0.05 0.03 0.02 0.01 0.00 0.00 0.00 0.00 0.00 0.00 0.00 0.00 0.00 0.00 0.00 0.00 0.00 0.00 0.00 0.00 0.00 0.00 0.00 0.00 0.00
0.35 0.13 0.07 0.06 0.04 0.02 0.00 0.01 0.01 0.01 0.01 0.02 0.03 0.05 0.10 0.10 0.08 0.05 0.03 0.02 0.01 0.00 0.00 0.00 0.00 0.00 0.00 0.00 0.00 0.00 0.00 0.00 0.00 0.00 0.00 0.00 0.00 0.00 0.00 0.00 0.00 0.00 0.00
0.22 0.12 0.07 0.07 0.05 0.03 0.01 0.01 0.02 0.02 0.02 0.03 0.03 0.03 0.06 0.06 0.04 0.03 0.03 0.02 0.01 0.01 0.00 0.00 0.00 0.00 0.00 0.00 0.00 0.00 0.00 0.00 0.00 0.00 0.00 0.00 0.00 0.00 0.00 0.00 0.00 0.00 0.00
0.17 0.12 0.10 0.10 0.05 0.03 0.01 0.00 0.01 0.01 0.01 0.02 0.02 0.01 0.02 0.02 0.02 0.02 0.01 0.01 0.00 0.00 0.00 0.00 0.00 0.00 0.00 0.00 0.00 0.00 0.00 0.00 0.00 0.00 0.00 0.00 0.00 0.00 0.00 0.00 0.00 0.01 0.01
0.14 0.13 0.14 0.09 0.03 0.02 0.01 0.01 0.01 0.01 0.02 0.03 0.02 0.01 0.01 0.02 0.02 0.02 0.02 0.02 0.01 0.00 0.00 0.00 0.00 0.00 0.00 0.00 0.00 0.00 0.00 0.00 0.00 0.00 0.00 0.01 0.01 0.00 0.00 0.00 0.01 0.02 0.02
0.15 0.17 0.17 0.07 0.02 0.01 0.00 0.01 0.02 0.03 0.04 0.05 0.04 0.02 0.01 0.01 0.02 0.01 0.02 0.02 0.01 0.00 0.00 0.00 0.00 0.00 0.00 0.00 0.00 0.00 0.01 0.01 0.01 0.02 0.02 0.02 0.03 0.03 0.02 0.03 0.03 0.03 0.02
0.23 0.38 0.32 0.10 0.02 0.00 0.01 0.02 0.01 0.02 0.02 0.03 0.02 0.01 0.01 0.00 0.00 0.01 0.02 0.02 0.01 0.01 0.01 0.02 0.02 0.03 0.03 0.03 0.03 0.03 0.03 0.03 0.04 0.04 0.03 0.03 0.03 0.03 0.03 0.03 0.02 0.02 0.02
0.47 0.81 0.59 0.15 0.03 0.01 0.01 0.01 0.02 0.02 0.02 0.01 0.01 0.00 0.00 0.00 0.00 0.00 0.01 0.01 0.01 0.01 0.03 0.06 0.08 0.09 0.10 0.09 0.07 0.05 0.05 0.04 0.05 0.05 0.04 0.04 0.04 0.03 0.03 0.03 0.02 0.02 0.03
0.86 1.32 0.85 0.26 0.09 0.04 0.02 0.02 0.02 0.02 0.01 0.01 0.01 0.01 0.01 0.01 0.02 0.02 0.03 0.04 0.04 0.06 0.09 0.12 0.13 0.12 0.09 0.08 0.05 0.04 0.04 0.04 0.04 0.04 0.04 0.03 0.03 0.02 0.02 0.02 0.02 0.03 0.05
0.78 0.96 0.67 0.37 0.24 0.14 0.11 0.11 0.09 0.05 0.04 0.05 0.04 0.04 0.07 0.10 0.12 0.11 0.08 0.10 0.09 0.09 0.08 0.07 0.07 0.07 0.07 0.05 0.05 0.03 0.02 0.02 0.01 0.01 0.01 0.01 0.01 0.01 0.01 0.01 0.01 0.01 0.02
0.50 0.55 0.54 0.49 0.43 0.26 0.19 0.18 0.18 0.13 0.11 0.11 0.13 0.19 0.22 0.19 0.13 0.10 0.09 0.06 0.06 0.06 0.06 0.06 0.05 0.03 0.03 0.02 0.03 0.02 0.01 0.00 0.00 0.00 0.00 0.00 0.00 0.00 0.00 0.01 0.00 0.00 0.00
0.39 0.46 0.50 0.51 0.49 0.35 0.25 0.22 0.23 0.23 0.23 0.27 0.32 0.34 0.29 0.20 0.12 0.08 0.05 0.04 0.03 0.02 0.03 0.03 0.03 0.04 0.03 0.01 0.01 0.02 0.02 0.01 0.00 0.00 0.00 0.00 0.00 0.00 0.00 0.00 0.00 0.00 0.00
0.38 0.41 0.43 0.48 0.49 0.44 0.34 0.26 0.28 0.32 0.32 0.32 0.24 0.20 0.15 0.08 0.05 0.03 0.02 0.02 0.01 0.01 0.01 0.01 0.02 0.02 0.02 0.01 0.00 0.01 0.01 0.02 0.02 0.01 0.00 0.00 0.00 0.00 0.00 0.00 0.00 0.00 0.00
0.34 0.36 0.41 0.45 0.44 0.39 0.33 0.28 0.26 0.22 0.16 0.11 0.08 0.05 0.03 0.01 0.01 0.01 0.01 0.01 0.01 0.01 0.01 0.01 0.01 0.01 0.01 0.01 0.01 0.01 0.01 0.01 0.02 0.03 0.02 0.01 0.00 0.00 0.00 0.00 0.00 0.00 0.00
0.23 0.28 0.33 0.34 0.33 0.29 0.25 0.22 0.17 0.14 0.11 0.08 0.05 0.03 0.02 0.01 0.00 0.00 0.00 0.00 0.01 0.01 0.01 0.01 0.01 0.01 0.01 0.02 0.01 0.01 0.02 0.02 0.02 0.03 0.03 0.02 0.01 0.00 0.00 0.00 0.00 0.00 0.01